LOG311 EGPH-EGHI

Flight info

Callsign LOG311
Flight time 1h 0m
Altitude 33000
Route GOSAM P600 FENIK L612 NAVSO DCT ADZOP DCT EGTOC DCT KEPAD L151 PEPUL Y322 BUGUP
Aircraft E45X/M-SABDFGRW/S

Departure

Time 2026-04-25 13:05
Airport Edinburgh Airport (EGPH)

Arrival

Time 2026-04-25 14:06
Airport Southampton Airport (EGHI)
Time Latitude Longitude Altitude Speed Heading
2026-04-25 12:33 55.94881 -3.36549 103 ft 0 kts 149°
2026-04-25 12:52 55.94892 -3.36561 103 ft 2 kts 149°
2026-04-25 12:52 55.94905 -3.36574 103 ft 2 kts 149°
2026-04-25 12:52 55.94918 -3.36587 103 ft 2 kts 162°
2026-04-25 12:53 55.94932 -3.36591 103 ft 2 kts 188°
2026-04-25 12:53 55.94946 -3.36583 103 ft 2 kts 213°
2026-04-25 12:53 55.94957 -3.36566 103 ft 1 kts 237°
2026-04-25 12:53 55.94959 -3.36560 103 ft 0 kts 239°
2026-04-25 13:01 55.94941 -3.36614 103 ft 11 kts 240°
2026-04-25 13:02 55.94901 -3.36736 103 ft 12 kts 251°
2026-04-25 13:02 55.94925 -3.36884 103 ft 12 kts 270°
2026-04-25 13:02 55.94864 -3.37078 103 ft 16 kts 239°
2026-04-25 13:02 55.94812 -3.37228 103 ft 19 kts 239°
2026-04-25 13:03 55.94720 -3.37498 103 ft 30 kts 237°
2026-04-25 13:03 55.94634 -3.37751 104 ft 20 kts 240°
2026-04-25 13:03 55.94547 -3.38005 105 ft 19 kts 240°
2026-04-25 13:03 55.94495 -3.38159 106 ft 18 kts 239°
2026-04-25 13:04 55.94417 -3.38391 108 ft 24 kts 239°
2026-04-25 13:04 55.94328 -3.38650 111 ft 23 kts 239°
2026-04-25 13:04 55.94307 -3.38873 112 ft 22 kts 321°
2026-04-25 13:04 55.94347 -3.38919 112 ft 9 kts 330°
2026-04-25 13:05 55.94434 -3.38909 112 ft 19 kts 52°
2026-04-25 13:05 55.94585 -3.38483 108 ft 79 kts 59°
2026-04-25 13:05 55.94998 -3.37278 140 ft 139 kts 59°
2026-04-25 13:05 55.95499 -3.35763 786 ft 146 kts 59°
2026-04-25 13:06 55.96038 -3.34125 1386 ft 165 kts 59°
2026-04-25 13:06 55.96770 -3.32441 1966 ft 193 kts 38°
2026-04-25 13:06 55.98031 -3.30862 2253 ft 238 kts 40°
2026-04-25 13:06 55.99283 -3.28968 3291 ft 244 kts 40°
2026-04-25 13:07 56.00775 -3.27607 4362 ft 250 kts 11°
2026-04-25 13:07 56.02495 -3.27937 5373 ft 258 kts 338°
2026-04-25 13:07 56.03863 -3.29897 6343 ft 265 kts 306°
2026-04-25 13:07 56.04467 -3.32977 7336 ft 270 kts 274°
2026-04-25 13:08 56.04075 -3.36242 8300 ft 276 kts 243°
2026-04-25 13:08 56.02878 -3.38913 9195 ft 281 kts 232°
2026-04-25 13:08 56.02024 -3.41987 10037 ft 282 kts 258°
2026-04-25 13:08 56.01548 -3.45324 10940 ft 285 kts 258°
2026-04-25 13:09 56.01056 -3.48797 11638 ft 295 kts 258°
2026-04-25 13:09 56.00543 -3.52401 12279 ft 307 kts 258°
2026-04-25 13:09 56.00010 -3.56139 12937 ft 317 kts 258°
2026-04-25 13:09 55.99113 -3.59778 13506 ft 332 kts 241°
2026-04-25 13:10 55.97612 -3.63013 14048 ft 349 kts 222°
2026-04-25 13:10 55.95459 -3.65185 14615 ft 363 kts 208°
2026-04-25 13:10 55.93195 -3.67265 15297 ft 368 kts 210°
2026-04-25 13:10 55.90931 -3.69380 16031 ft 371 kts 210°
2026-04-25 13:11 55.88642 -3.71521 16742 ft 373 kts 210°
2026-04-25 13:11 55.86354 -3.73659 17415 ft 377 kts 210°
2026-04-25 13:11 55.84042 -3.75815 18089 ft 379 kts 210°
2026-04-25 13:11 55.81720 -3.77978 18865 ft 378 kts 209°
2026-04-25 13:12 55.79408 -3.80128 19673 ft 375 kts 209°
2026-04-25 13:12 55.77117 -3.82257 20453 ft 373 kts 209°
2026-04-25 13:12 55.74830 -3.84379 21216 ft 371 kts 209°
2026-04-25 13:12 55.74069 -3.85084 21465 ft 371 kts 209°
2026-04-25 13:13 55.70307 -3.88568 22641 ft 369 kts 208°
2026-04-25 13:13 55.68035 -3.90666 23341 ft 368 kts 208°
2026-04-25 13:13 55.65789 -3.92740 24026 ft 367 kts 208°
2026-04-25 13:13 55.63547 -3.94806 24703 ft 366 kts 208°
2026-04-25 13:14 55.61286 -3.96888 25396 ft 365 kts 208°
2026-04-25 13:14 55.59050 -3.98942 26074 ft 364 kts 208°
2026-04-25 13:14 55.56810 -4.00998 26751 ft 363 kts 208°
2026-04-25 13:14 55.54579 -4.02953 27434 ft 362 kts 203°
2026-04-25 13:15 55.52195 -4.04253 28116 ft 361 kts 192°
2026-04-25 13:15 55.49698 -4.04705 28794 ft 360 kts 180°
2026-04-25 13:15 55.47221 -4.04420 29475 ft 360 kts 172°
2026-04-25 13:15 55.44797 -4.03360 30165 ft 359 kts 161°
2026-04-25 13:16 55.42556 -4.01495 30856 ft 359 kts 149°
2026-04-25 13:16 55.40471 -3.99118 31547 ft 357 kts 149°
2026-04-25 13:16 55.38335 -3.96902 32233 ft 355 kts 151°
2026-04-25 13:16 55.36185 -3.94764 32905 ft 354 kts 152°
2026-04-25 13:17 55.34008 -3.92641 33350 ft 364 kts 152°
2026-04-25 13:17 55.31730 -3.90438 33414 ft 382 kts 152°
2026-04-25 13:17 55.29375 -3.88169 33387 ft 400 kts 152°
2026-04-25 13:17 55.26881 -3.85771 33315 ft 414 kts 152°
2026-04-25 13:18 55.24324 -3.83316 33303 ft 425 kts 152°
2026-04-25 13:18 55.21663 -3.81045 33299 ft 435 kts 159°
2026-04-25 13:18 55.15847 -3.77808 33234 ft 436 kts 163°
2026-04-25 13:19 55.10160 -3.74700 33229 ft 425 kts 163°
2026-04-25 13:19 55.06455 -3.72557 33248 ft 422 kts 158°
2026-04-25 13:20 54.99756 -3.65696 33237 ft 418 kts 151°
2026-04-25 13:20 54.94388 -3.62194 33223 ft 414 kts 166°
2026-04-25 13:21 54.88839 -3.59531 33220 ft 414 kts 165°
2026-04-25 13:21 54.83268 -3.56812 33221 ft 418 kts 165°
2026-04-25 13:22 54.77662 -3.54078 33216 ft 421 kts 165°
2026-04-25 13:23 54.69192 -3.49963 33209 ft 424 kts 165°
2026-04-25 13:23 54.63504 -3.47209 33207 ft 426 kts 165°
2026-04-25 13:24 54.57785 -3.44448 33205 ft 428 kts 165°
2026-04-25 13:24 54.52062 -3.41693 33204 ft 429 kts 165°
2026-04-25 13:25 54.46314 -3.38934 33207 ft 430 kts 165°
2026-04-25 13:25 54.40554 -3.36177 33212 ft 431 kts 165°
2026-04-25 13:26 54.34791 -3.33428 33211 ft 432 kts 166°
2026-04-25 13:26 54.29023 -3.30683 33209 ft 432 kts 166°
2026-04-25 13:27 54.23249 -3.27944 33210 ft 433 kts 166°
2026-04-25 13:27 54.17394 -3.25447 33210 ft 432 kts 173°
2026-04-25 13:28 54.11463 -3.24504 33212 ft 431 kts 176°
2026-04-25 13:28 54.05523 -3.23574 33211 ft 432 kts 176°
2026-04-25 13:29 53.99564 -3.22276 33209 ft 433 kts 167°
2026-04-25 13:29 53.93886 -3.18784 33209 ft 434 kts 160°
2026-04-25 13:30 53.85424 -3.13306 33209 ft 435 kts 161°
2026-04-25 13:31 53.76944 -3.07866 33211 ft 435 kts 161°
2026-04-25 13:31 53.71301 -3.04259 33210 ft 435 kts 161°
2026-04-25 13:32 53.65644 -3.00653 33210 ft 435 kts 161°
2026-04-25 13:32 53.59968 -2.97046 33210 ft 436 kts 161°
2026-04-25 13:33 53.54313 -2.93462 33210 ft 436 kts 161°
2026-04-25 13:33 53.48644 -2.89880 33210 ft 436 kts 161°
2026-04-25 13:34 53.42984 -2.86313 33208 ft 436 kts 161°
2026-04-25 13:34 53.37293 -2.82737 33207 ft 437 kts 161°
2026-04-25 13:35 53.31625 -2.79186 33208 ft 434 kts 161°
2026-04-25 13:35 53.25995 -2.75669 33211 ft 432 kts 161°
2026-04-25 13:36 53.20418 -2.72195 33209 ft 429 kts 161°
2026-04-25 13:36 53.14848 -2.68734 33207 ft 428 kts 161°
2026-04-25 13:37 53.09283 -2.65287 33206 ft 426 kts 161°
2026-04-25 13:37 53.03738 -2.61861 33206 ft 425 kts 161°
2026-04-25 13:38 52.98251 -2.58480 33203 ft 424 kts 161°
2026-04-25 13:38 52.92715 -2.55078 33197 ft 423 kts 161°
2026-04-25 13:39 52.87184 -2.51689 33193 ft 422 kts 161°
2026-04-25 13:39 52.81697 -2.48273 33185 ft 423 kts 158°
2026-04-25 13:40 52.76658 -2.43158 33188 ft 424 kts 147°
2026-04-25 13:40 52.71749 -2.37706 33187 ft 424 kts 148°
2026-04-25 13:40 52.69316 -2.35024 32845 ft 419 kts 148°
2026-04-25 13:41 52.66907 -2.32374 32418 ft 412 kts 148°
2026-04-25 13:41 52.64553 -2.29789 31990 ft 406 kts 148°
2026-04-25 13:41 52.62212 -2.27222 31499 ft 400 kts 148°
2026-04-25 13:41 52.59893 -2.24682 30934 ft 394 kts 149°
2026-04-25 13:42 52.57635 -2.22212 30383 ft 390 kts 149°
2026-04-25 13:42 52.55382 -2.19751 29866 ft 385 kts 149°
2026-04-25 13:42 52.53176 -2.17343 29428 ft 377 kts 149°
2026-04-25 13:42 52.51020 -2.14995 29028 ft 369 kts 149°
2026-04-25 13:43 52.48914 -2.12702 28631 ft 361 kts 149°
2026-04-25 13:43 52.46843 -2.10450 28234 ft 354 kts 149°
2026-04-25 13:43 52.44803 -2.08234 27864 ft 347 kts 149°
2026-04-25 13:43 52.42820 -2.06083 27528 ft 342 kts 149°
2026-04-25 13:44 52.40839 -2.03937 27194 ft 343 kts 149°
2026-04-25 13:44 52.38840 -2.01772 26866 ft 346 kts 149°
2026-04-25 13:44 52.36842 -1.99611 26540 ft 348 kts 149°
2026-04-25 13:44 52.34829 -1.97437 26214 ft 350 kts 149°
2026-04-25 13:45 52.32793 -1.95241 25886 ft 351 kts 149°
2026-04-25 13:45 52.30744 -1.93034 25559 ft 353 kts 149°
2026-04-25 13:45 52.28686 -1.90819 25231 ft 354 kts 149°
2026-04-25 13:45 52.26618 -1.88695 24890 ft 353 kts 154°
2026-04-25 13:46 52.24381 -1.87057 24399 ft 357 kts 160°
2026-04-25 13:46 52.22069 -1.85457 23898 ft 362 kts 159°
2026-04-25 13:46 52.19754 -1.83847 23389 ft 366 kts 159°
2026-04-25 13:46 52.17397 -1.82206 22649 ft 370 kts 159°
2026-04-25 13:47 52.15057 -1.80577 21897 ft 369 kts 159°
2026-04-25 13:47 52.12706 -1.78942 21363 ft 366 kts 159°
2026-04-25 13:47 52.10390 -1.77334 20841 ft 368 kts 159°
2026-04-25 13:47 52.08018 -1.75688 20302 ft 369 kts 159°
2026-04-25 13:48 52.05663 -1.74056 19770 ft 369 kts 159°
2026-04-25 13:48 52.03337 -1.72446 19248 ft 369 kts 159°
2026-04-25 13:48 52.00969 -1.70809 18725 ft 369 kts 159°
2026-04-25 13:48 51.98598 -1.69171 18209 ft 369 kts 159°
2026-04-25 13:49 51.96255 -1.67555 17701 ft 368 kts 159°
2026-04-25 13:49 51.93913 -1.65941 17193 ft 368 kts 159°
2026-04-25 13:49 51.91540 -1.64308 16546 ft 371 kts 159°
2026-04-25 13:49 51.89177 -1.62683 15743 ft 368 kts 159°
2026-04-25 13:50 51.86890 -1.60907 14935 ft 365 kts 151°
2026-04-25 13:50 51.84749 -1.58828 14328 ft 356 kts 150°
2026-04-25 13:50 51.82656 -1.56808 13801 ft 345 kts 150°
2026-04-25 13:50 51.80608 -1.54837 13268 ft 337 kts 150°
2026-04-25 13:51 51.78624 -1.52930 12743 ft 330 kts 150°
2026-04-25 13:51 51.76695 -1.51078 12228 ft 323 kts 150°
2026-04-25 13:51 51.74769 -1.49230 11770 ft 316 kts 150°
2026-04-25 13:51 51.72939 -1.47476 11524 ft 303 kts 150°
2026-04-25 13:52 51.71165 -1.45777 11277 ft 292 kts 150°
2026-04-25 13:52 51.69429 -1.44162 11031 ft 282 kts 155°
2026-04-25 13:52 51.67646 -1.43057 10802 ft 274 kts 161°
2026-04-25 13:52 51.65865 -1.42007 10578 ft 276 kts 160°
2026-04-25 13:53 51.64044 -1.40933 10314 ft 279 kts 160°
2026-04-25 13:53 51.62232 -1.39865 9937 ft 276 kts 160°
2026-04-25 13:53 51.60443 -1.38811 9586 ft 273 kts 160°
2026-04-25 13:53 51.58680 -1.37774 9309 ft 267 kts 160°
2026-04-25 13:54 51.56950 -1.36757 9031 ft 263 kts 160°
2026-04-25 13:54 51.55239 -1.35752 8756 ft 265 kts 160°
2026-04-25 13:54 51.53471 -1.34715 8490 ft 271 kts 161°
2026-04-25 13:54 51.51687 -1.33669 8224 ft 274 kts 161°
2026-04-25 13:55 51.49923 -1.32635 7948 ft 268 kts 161°
2026-04-25 13:55 51.48169 -1.31608 7670 ft 263 kts 160°
2026-04-25 13:55 51.46476 -1.30618 7399 ft 259 kts 160°
2026-04-25 13:55 51.44789 -1.29632 7126 ft 256 kts 160°
2026-04-25 13:56 51.43141 -1.28669 6856 ft 252 kts 160°
2026-04-25 13:56 51.41482 -1.27700 6581 ft 250 kts 160°
2026-04-25 13:56 51.39861 -1.26754 6310 ft 247 kts 160°
2026-04-25 13:56 51.38253 -1.25818 6040 ft 245 kts 160°
2026-04-25 13:57 51.36663 -1.24891 5770 ft 244 kts 160°
2026-04-25 13:57 51.36132 -1.24583 5680 ft 243 kts 160°
2026-04-25 13:57 51.33463 -1.23283 5225 ft 240 kts 179°
2026-04-25 13:57 51.31831 -1.23385 4919 ft 231 kts 183°
2026-04-25 13:58 51.30270 -1.23509 4639 ft 219 kts 184°
2026-04-25 13:58 51.28771 -1.23630 4357 ft 210 kts 184°
2026-04-25 13:58 51.27328 -1.23747 4134 ft 206 kts 184°
2026-04-25 13:58 51.25927 -1.23860 3999 ft 203 kts 183°
2026-04-25 13:59 51.24526 -1.23974 3922 ft 197 kts 183°
2026-04-25 13:59 51.23173 -1.24084 3814 ft 191 kts 183°
2026-04-25 13:59 51.21896 -1.24187 3750 ft 179 kts 183°
2026-04-25 13:59 51.20670 -1.24286 3724 ft 173 kts 183°
2026-04-25 14:00 51.19880 -1.24350 3721 ft 167 kts 183°
2026-04-25 14:00 51.18411 -1.23915 3696 ft 160 kts 149°
2026-04-25 14:00 51.17423 -1.23331 3752 ft 159 kts 169°
2026-04-25 14:00 51.16218 -1.23153 3819 ft 179 kts 179°
2026-04-25 14:01 51.14918 -1.23138 3844 ft 199 kts 181°
2026-04-25 14:01 51.13721 -1.23819 3721 ft 172 kts 221°
2026-04-25 14:01 51.12893 -1.24997 3591 ft 159 kts 215°
2026-04-25 14:01 51.11985 -1.25863 3465 ft 143 kts 207°
2026-04-25 14:02 51.11053 -1.26568 3303 ft 151 kts 204°
2026-04-25 14:02 51.10094 -1.27205 3087 ft 147 kts 202°
2026-04-25 14:02 51.09155 -1.27776 2900 ft 142 kts 200°
2026-04-25 14:02 51.08836 -1.27963 2846 ft 147 kts 200°
2026-04-25 14:03 51.07154 -1.28925 2545 ft 157 kts 199°
2026-04-25 14:03 51.06115 -1.29509 2338 ft 159 kts 199°
2026-04-25 14:03 51.05073 -1.30091 2113 ft 159 kts 199°
2026-04-25 14:03 51.04040 -1.30668 1883 ft 159 kts 199°
2026-04-25 14:04 51.03022 -1.31235 1654 ft 154 kts 199°
2026-04-25 14:04 51.02050 -1.31776 1444 ft 148 kts 199°
2026-04-25 14:04 51.01075 -1.32320 1230 ft 148 kts 199°
2026-04-25 14:04 51.00099 -1.32862 1018 ft 148 kts 200°
2026-04-25 14:05 50.99132 -1.33401 808 ft 145 kts 200°
2026-04-25 14:05 50.98192 -1.33925 607 ft 142 kts 200°
2026-04-25 14:05 50.97258 -1.34421 422 ft 139 kts 199°
2026-04-25 14:05 50.96346 -1.34943 209 ft 138 kts 201°
2026-04-25 14:06 50.95497 -1.35414 49 ft 120 kts 200°
2026-04-25 14:06 50.94846 -1.35780 49 ft 58 kts 199°
2026-04-25 14:06 50.94640 -1.35892 49 ft 23 kts 201°
2026-04-25 14:06 50.94571 -1.36018 49 ft 20 kts 289°
2026-04-25 14:07 50.94580 -1.36054 49 ft 0 kts 290°
2026-04-25 14:07 50.94598 -1.36102 49 ft 8 kts 315°
2026-04-25 14:07 50.94690 -1.36124 49 ft 16 kts 17°
2026-04-25 14:07 50.94763 -1.36085 49 ft 14 kts 19°
2026-04-25 14:08 50.94873 -1.36026 49 ft 17 kts 18°
2026-04-25 14:08 50.94962 -1.35978 49 ft 10 kts 19°
2026-04-25 14:08 50.95035 -1.35944 49 ft 9 kts
2026-04-25 14:08 50.95067 -1.35979 49 ft 7 kts 296°
2026-04-25 14:09 50.95073 -1.36004 49 ft 0 kts 290°